Theta_e
301 300 300 300 301 300 300 300 300 300 300 300 300 300 300 300 300 302 306 306 304 302 298 299 299 304 304 305 305 306 306 310 313 318 318 318 318 318 318 320 321 328 330 332 335
300 300 300 300 300 300 300 300 300 300 300 300 300 300 300 300 301 306 306 305 302 300 298 298 302 304 305 306 306 304 306 309 311 311 310 310 311 312 316 317 319 329 333 333 333
300 300 300 299 300 299 300 300 300 300 300 300 300 300 300 301 306 306 304 304 302 297 298 302 304 304 305 306 306 306 305 305 306 308 308 306 306 307 316 317 322 314 321 333 335
300 299 299 299 299 299 299 299 299 300 299 299 299 299 299 304 301 306 306 305 299 298 300 302 304 304 304 304 304 304 305 306 306 307 306 305 306 305 307 313 314 315 317 320 334
299 299 299 299 299 299 299 299 299 299 299 299 299 299 300 303 305 305 305 303 298 299 301 303 303 303 304 303 302 303 305 306 306 306 306 307 305 305 306 307 308 310 315 320 330
299 299 299 299 299 299 299 298 298 298 298 299 299 299 301 305 304 305 304 304 299 301 301 301 303 303 303 303 302 304 303 303 304 305 305 306 305 306 306 306 306 307 310 316 327
299 299 299 299 298 298 298 298 298 298 299 299 299 299 304 302 302 299 299 301 300 301 301 302 302 303 303 303 303 303 303 302 302 304 305 305 305 305 306 306 306 307 308 309 317
299 299 299 298 298 298 298 298 298 299 300 299 300 303 303 303 302 302 301 301 300 301 302 301 301 303 303 303 304 304 303 301 301 302 304 304 304 304 305 306 305 306 308 311 315
299 299 298 298 298 297 298 298 298 300 299 299 303 305 303 302 302 300 299 300 301 301 301 301 302 302 303 303 303 303 303 302 302 303 304 304 304 304 305 305 305 305 306 312 314
298 298 298 298 297 298 297 297 297 301 301 301 304 301 302 302 300 299 300 300 300 300 300 303 303 302 302 303 302 301 302 302 302 303 303 302 303 303 305 305 305 305 305 306 315
298 298 298 297 297 298 298 297 297 299 297 297 298 300 299 299 300 300 300 300 300 300 300 301 303 304 303 303 304 304 304 304 303 303 302 302 302 302 301 302 301 303 305 305 308
298 298 297 297 298 298 300 297 298 298 299 301 300 300 299 300 300 300 300 299 299 299 300 301 301 301 302 303 304 303 303 303 303 303 302 302 302 302 301 301 302 302 303 304 306
298 297 297 297 298 299 301 298 298 299 298 301 302 301 299 299 300 300 300 299 300 300 301 301 301 301 301 302 303 303 303 302 304 304 304 303 302 301 301 302 303 303 303 303 304
298 297 297 297 298 298 298 297 297 299 297 303 300 300 299 299 300 300 300 299 299 300 300 301 301 302 302 302 302 302 302 304 304 303 304 304 305 302 301 302 302 303 304 304 304
297 297 297 297 297 298 297 297 298 301 292 298 298 299 298 299 299 300 300 299 299 300 300 300 301 301 302 302 302 302 302 303 303 304 305 305 304 301 301 302 302 302 303 303 304
297 297 297 297 296 296 296 298 301 294 292 297 298 297 297 299 299 299 299 299 300 301 301 301 300 300 301 301 302 302 304 304 305 306 305 303 305 303 301 301 301 302 303 304 304
297 297 297 296 296 296 297 301 294 294 294 294 297 296 297 298 298 298 297 297 299 296 297 297 299 301 301 301 301 303 303 305 304 306 299 303 304 303 302 302 302 302 302 304 305
297 298 297 296 295 296 299 295 290 287 289 297 297 297 298 297 297 296 295 296 298 297 296 293 296 300 301 300 301 303 302 301 299 299 299 302 300 303 303 302 303 303 302 303 305
297 298 298 296 295 296 298 293 289 290 296 296 296 292 292 297 296 295 294 296 297 296 295 296 297 299 298 301 304 306 304 305 304 299 305 305 306 306 306 306 303 302 302 303 305
298 298 299 296 296 297 294 293 288 296 296 295 293 293 290 293 294 295 294 297 297 296 296 295 297 297 300 303 304 304 304 308 305 304 305 306 305 310 307 311 304 302 302 303 304
298 298 298 296 297 296 288 284 292 296 297 295 292 293 293 295 297 293 295 296 295 296 296 297 297 298 299 300 303 302 301 303 305 308 306 307 307 306 306 310 313 313 307 306 306
298 294 298 295 296 294 288 287 295 296 297 298 297 295 291 294 292 295 296 295 296 295 295 297 298 298 298 299 301 300 300 299 301 307 306 306 307 302 303 308 312 311 310 311 312
297 296 296 295 288 283 291 294 295 295 296 296 297 296 289 290 293 291 295 295 295 295 296 297 298 297 297 301 301 298 299 296 298 301 308 307 307 301 301 307 307 307 306 306 306
297 291 296 295 297 292 289 288 291 296 296 297 297 296 291 288 292 292 295 295 295 295 297 296 298 298 298 298 298 296 297 295 296 297 301 301 299 297 299 304 304 303 303 303 302
296 294 293 286 290 295 294 293 294 293 296 296 294 290 291 291 292 288 293 295 295 296 295 296 298 298 298 298 298 295 295 294 293 294 298 299 296 294 294 301 302 301 301 300 300
297 296 293 294 294 295 295 293 296 295 295 293 289 291 288 289 291 294 295 295 295 295 295 297 296 298 299 300 298 295 293 295 292 291 293 296 294 292 289 293 296 297 297 297 296
296 296 295 296 296 290 294 295 295 294 295 295 294 293 289 291 294 293 293 293 294 295 296 296 297 297 299 300 302 295 293 294 291 290 291 291 293 291 287 287 286 289 292 292 292
Wind_Speed
12 12 12 13 13 15 16 16 16 17 18 19 20 21 22 24 24 19 7 3 8 16 16 13 11 9 7 8 10 9 3 12 12 5 11 23 16 17 22 13 23 10 22 17 18
11 12 12 14 15 16 17 17 18 19 19 19 21 22 23 26 24 7 4 4 14 17 17 18 16 15 10 7 7 5 4 5 5 7 8 16 16 19 14 21 21 6 9 13 16
12 13 14 15 16 17 18 19 19 20 20 21 22 23 23 22 11 5 6 13 18 16 16 11 12 16 10 13 9 5 12 10 16 21 21 12 19 18 6 7 7 12 20 20 28
12 14 16 16 16 18 19 20 20 20 21 22 23 23 23 12 4 10 13 16 15 12 13 12 13 13 5 7 18 7 15 17 14 19 20 12 20 12 18 18 24 32 26 23 26
13 15 16 17 18 18 20 21 22 23 24 24 22 20 19 10 7 10 14 18 13 13 10 11 15 13 4 11 16 8 8 17 21 23 23 27 16 15 28 24 25 27 22 19 36
13 15 17 18 19 20 21 22 22 25 26 21 17 15 13 5 3 13 20 19 10 13 13 9 8 15 14 11 8 10 20 21 24 24 22 16 16 14 36 25 32 30 26 27 20
14 15 17 19 21 21 22 21 23 26 20 16 13 12 10 7 11 11 14 16 14 19 21 18 15 14 11 9 19 14 8 14 16 12 11 20 17 24 29 34 30 29 29 33 20
14 16 17 19 22 24 23 23 22 18 14 16 13 6 6 6 10 12 15 19 20 13 16 19 21 20 17 16 20 13 7 7 13 10 14 16 23 17 25 35 32 31 27 29 31
14 16 19 21 24 25 25 24 16 12 9 14 5 5 6 7 12 23 24 20 16 19 19 24 17 19 11 7 9 5 8 9 13 11 15 12 21 17 31 32 31 30 26 23 29
14 17 20 23 25 23 27 23 17 5 8 4 4 5 4 14 21 27 13 20 25 24 19 7 6 4 3 6 8 5 6 11 14 15 12 15 14 7 19 25 22 25 27 27 25
14 17 20 23 25 24 27 21 19 3 20 6 11 9 18 18 22 21 17 18 12 11 4 10 5 10 12 16 18 15 19 21 20 20 15 17 16 12 10 18 15 21 22 25 30
15 17 20 23 20 24 23 21 14 10 11 5 5 11 14 15 16 22 18 8 8 10 8 6 17 19 16 17 21 20 21 21 22 15 11 17 19 15 13 16 22 24 23 20 25
15 18 21 23 14 19 19 22 19 6 4 10 9 11 10 14 15 20 10 8 5 8 10 11 16 18 18 18 17 17 17 18 20 15 18 16 18 16 11 15 24 29 32 27 28
16 19 23 22 10 15 14 22 18 5 3 5 4 4 10 26 6 16 7 7 3 10 9 11 10 10 17 20 19 22 21 20 19 14 15 11 10 16 14 16 18 25 27 29 30
15 19 21 19 15 17 20 20 10 3 5 9 6 7 28 11 19 7 6 17 15 20 4 17 18 22 21 18 14 11 12 16 18 17 12 15 5 6 13 17 17 15 27 31 30
16 19 20 13 16 19 18 11 4 6 5 8 7 14 14 6 9 8 19 17 21 7 12 18 28 14 8 11 13 15 12 18 12 9 10 12 11 13 13 23 21 21 30 32 30
16 18 18 12 18 16 15 5 5 6 6 10 8 10 12 7 8 8 13 9 5 8 12 14 5 1 3 10 9 7 5 2 2 4 5 5 10 20 12 20 22 21 27 33 35
16 18 13 12 18 16 11 5 8 4 5 5 7 13 5 12 7 12 11 7 7 7 9 6 10 4 3 9 8 11 3 1 4 2 5 5 6 8 16 21 29 36 32 31 34
16 17 8 14 16 14 4 6 6 5 4 9 12 5 6 4 4 10 5 4 5 11 5 6 7 8 11 9 3 3 4 5 3 4 3 4 5 10 9 9 21 17 22 23 32
16 13 5 14 14 10 5 1 3 2 4 3 2 3 5 7 9 13 5 3 6 11 17 4 9 8 15 2 3 4 7 3 0 3 4 3 8 3 17 14 14 16 16 22 27
13 5 6 13 11 6 4 5 4 6 7 2 3 5 5 7 7 4 6 11 6 11 17 8 5 10 10 5 7 9 9 5 6 3 2 4 2 10 16 16 9 5 6 13 25
7 3 8 12 5 4 2 4 4 5 5 5 4 4 5 4 5 3 5 4 19 16 16 3 4 6 17 7 7 8 12 8 4 2 1 2 2 17 21 13 10 15 20 19 16
8 3 5 7 3 3 4 3 4 3 3 4 3 3 1 3 6 4 5 7 25 21 5 6 3 7 10 4 4 11 18 22 9 5 4 3 5 17 20 9 18 17 26 30 35
3 2 4 7 6 4 3 3 5 6 6 6 6 5 4 3 5 8 10 10 29 23 8 17 3 5 5 10 10 15 20 25 15 5 4 8 9 22 25 19 20 27 33 36 38
2 1 2 2 3 2 3 2 3 5 4 4 4 2 1 4 9 4 5 17 7 7 11 5 3 5 13 12 3 21 20 25 21 17 8 12 13 19 22 18 22 30 36 43 43
1 2 3 3 1 3 1 2 3 4 3 4 2 6 5 5 7 19 14 12 6 6 13 2 4 6 2 11 7 19 24 18 19 19 10 13 14 17 24 28 36 32 39 41 42
4 2 1 2 2 3 2 3 4 6 5 8 7 7 4 7 13 27 28 26 20 16 6 4 4 4 4 8 1 7 22 12 18 22 10 11 9 14 21 25 32 34 40 40 38
Wind_Direction
32 25 22 20 12 8 3 358 352 348 345 338 336 338 340 338 334 329 352 273 296 324 332 334 334 337 307 280 259 253 270 251 260 268 276 294 299 306 316 313 323 236 202 234 190
26 22 20 15 10 2 355 348 345 341 335 333 334 338 342 341 338 352 357 305 323 325 331 345 346 345 321 282 285 194 229 259 289 310 305 312 310 322 341 337 315 333 167 174 184
21 18 15 11 2 354 348 343 336 332 332 331 333 337 342 343 355 2 343 325 323 326 332 352 338 323 296 288 261 257 257 282 289 296 300 308 304 321 326 294 257 353 350 199 182
17 15 11 2 354 348 341 335 332 331 330 329 331 333 339 343 356 329 314 316 318 325 338 347 334 331 305 294 295 289 289 283 290 297 302 295 300 289 281 268 286 287 301 304 217
18 13 5 356 350 342 336 333 332 329 328 329 329 331 338 330 288 300 305 303 307 327 329 326 316 315 299 311 315 297 296 301 313 308 301 290 283 278 279 287 290 299 294 325 235
15 9 360 351 343 338 335 334 333 326 328 331 328 331 329 282 310 307 307 303 311 331 320 308 295 312 286 260 255 296 307 298 297 286 289 294 297 293 276 288 287 288 291 284 268
9 3 354 345 339 336 336 337 332 324 332 340 337 328 309 297 329 329 328 292 301 315 302 304 296 288 300 309 285 279 302 303 285 283 283 292 271 262 283 292 286 277 277 284 290
3 355 348 345 339 338 340 341 328 324 343 353 343 344 275 330 319 316 312 299 295 283 277 284 291 267 267 273 288 287 283 263 265 258 259 237 258 263 270 273 277 280 268 269 270
358 350 347 347 342 340 343 344 338 330 1 348 12 344 304 326 302 311 312 309 304 302 301 299 280 256 249 263 284 230 263 251 284 256 261 246 263 253 251 256 265 269 266 266 268
353 349 348 348 344 344 347 354 354 349 329 358 20 308 287 317 312 317 331 319 305 301 294 290 241 218 217 209 243 227 227 264 264 276 285 292 286 285 248 245 254 265 255 251 252
349 350 350 349 346 346 354 12 18 340 337 299 291 272 296 322 316 322 332 316 323 301 249 265 240 238 236 228 241 260 266 268 270 271 273 274 278 280 288 292 292 287 276 257 247
347 349 352 349 348 347 358 29 8 325 316 37 322 285 315 316 299 323 326 311 317 289 286 277 256 265 265 257 257 269 278 272 276 272 255 269 271 267 262 268 266 276 280 281 259
344 348 351 353 354 353 355 1 350 338 288 307 292 299 317 315 294 309 348 338 293 282 281 270 270 305 286 286 290 277 272 274 273 302 279 260 273 262 250 252 272 267 268 263 266
344 349 352 0 357 2 360 346 341 357 41 296 332 323 336 329 292 310 309 336 301 283 294 272 273 287 301 285 274 272 269 265 271 276 271 202 258 249 242 250 254 258 260 265 261
341 348 356 356 356 358 346 340 349 0 16 301 311 310 333 323 289 356 333 331 287 286 244 262 291 292 288 287 303 275 281 261 262 260 265 246 254 260 236 244 241 242 251 251 253
340 348 352 1 358 349 343 345 4 40 300 335 314 331 342 310 318 298 322 332 305 303 277 281 297 290 288 307 262 262 278 257 244 244 245 242 209 246 221 225 237 241 239 252 240
339 345 349 360 354 354 350 16 33 87 347 305 321 342 323 318 316 351 333 340 35 340 330 328 294 208 337 307 289 235 304 305 218 205 233 171 202 241 237 228 229 232 237 241 239
337 341 350 2 358 350 359 54 53 242 255 325 319 318 330 5 324 347 341 347 37 15 309 343 325 24 280 295 275 290 225 269 246 236 269 260 243 249 231 229 226 233 232 238 233
335 338 4 1 353 350 23 52 201 225 295 326 320 22 324 349 310 357 322 283 50 43 29 324 280 315 300 314 294 8 172 274 280 219 251 235 300 326 341 284 228 236 223 228 236
336 337 12 355 354 0 65 211 211 261 294 31 333 40 322 313 343 346 309 297 359 28 9 271 288 290 328 353 270 275 325 317 312 288 281 304 303 286 328 314 212 225 231 247 238
336 337 355 353 356 35 101 227 281 282 320 191 266 297 253 303 320 298 279 302 27 349 349 293 225 289 329 30 353 6 2 338 290 222 247 308 269 341 334 344 356 58 219 238 236
332 353 343 358 34 47 100 199 295 286 297 277 242 221 237 313 302 281 267 286 337 333 328 303 290 286 291 305 238 356 342 337 273 239 176 251 301 347 342 328 42 51 42 53 109
326 312 2 16 77 330 325 308 265 282 289 311 276 195 180 322 327 250 282 275 319 330 311 337 309 309 338 42 50 3 345 346 318 199 320 21 353 338 340 35 55 61 58 62 75
331 14 34 60 88 128 62 289 302 260 257 255 266 313 359 293 228 279 290 312 322 314 322 345 260 243 262 284 311 353 359 8 13 30 329 23 350 344 353 31 50 54 60 64 66
21 82 54 323 0 46 116 189 277 327 260 309 312 170 176 301 299 238 254 315 298 323 357 313 286 284 293 264 153 30 9 15 19 3 32 10 15 354 353 32 50 61 66 62 62
272 145 114 108 358 16 36 271 275 294 267 288 183 284 187 220 215 291 307 324 287 309 329 336 279 322 307 117 72 39 15 22 18 6 5 17 32 4 6 35 46 49 62 61 58
184 152 221 116 76 70 228 265 269 337 281 254 319 309 287 250 285 278 275 272 263 292 310 294 307 329 309 324 351 25 9 10 25 27 348 16 3 12 23 38 35 38 54 60 60